This is the latest recevied weather packets stored in our database for station/object SP9KB-13. If no packets are shown the sender has not sent any weather packets the latest 10 day(s).
| Time | Temp. | Humidity | Pressure | Rain* | Wind** | Luminosity | Snow |
|---|---|---|---|---|---|---|---|
| 1777891402 | 23.33° C | 33% | 998.1 hPa | 0 mm | - | - | - |
| 1777891101 | 23.33° C | 34% | 998 hPa | 0 mm | - | - | - |
| 1777890800 | 23.33° C | 36% | 997.9 hPa | 0 mm | - | - | - |
| 1777890500 | 22.78° C | 36% | 998.3 hPa | 0 mm | - | - | - |
| 1777890199 | 22.22° C | 36% | 998.3 hPa | 0 mm | - | - | - |
| 1777889899 | 21.67° C | 36% | 998.4 hPa | 0 mm | - | - | - |
| 1777889598 | 21.67° C | 38% | 998.5 hPa | 0 mm | - | - | - |
| 1777889297 | 22.78° C | 35% | 998.6 hPa | 0 mm | - | - | - |
| 1777888996 | 21.67° C | 36% | 998.5 hPa | 0 mm | - | - | - |
| 1777888696 | 22.22° C | 38% | 998.5 hPa | 0 mm | - | - | - |
| 1777888395 | 21.11° C | 37% | 998.8 hPa | 0 mm | - | - | - |
| 1777888095 | 21.11° C | 36% | 998.9 hPa | 0 mm | - | - | - |
| 1777887794 | 21.11° C | 36% | 998.9 hPa | 0 mm | - | - | - |
| 1777887494 | 21.11° C | 37% | 999 hPa | 0 mm | - | - | - |
| 1777887193 | 20.56° C | 37% | 998.8 hPa | 0 mm | - | - | - |
| 1777886893 | 20.56° C | 37% | 999 hPa | 0 mm | - | - | - |
| 1777886592 | 20° C | 39% | 999 hPa | 0 mm | - | - | - |
| 1777886292 | 20.56° C | 38% | 999.1 hPa | 0 mm | - | - | - |
| 1777885991 | 20° C | 40% | 999.3 hPa | 0 mm | - | - | - |
| 1777885690 | 20° C | 40% | 999.2 hPa | 0 mm | - | - | - |
| 1777885390 | 20° C | 42% | 999.3 hPa | 0 mm | - | - | - |
| 1777885089 | 20° C | 41% | 999.3 hPa | 0 mm | - | - | - |
| 1777884788 | 20° C | 41% | 999.3 hPa | 0 mm | - | - | - |
| 1777884488 | 19.44° C | 41% | 999.5 hPa | 0 mm | - | - | - |
| 1777884187 | 20° C | 43% | 999.5 hPa | 0 mm | - | - | - |
* Rain latest hour (hover to see other rain measurements)
** Current wind speed in m/s (hover to see current wind gust speed)